Marshfield, MA

7:24 PM EDT on October 21, 2019 (GMT -0400)
Marshfield

Weather History for KGHG - September, 2019

Change the Weather History Date:

Thursday, September 19, 2019

  Actual Average (KPYM) Record (KPYM)
Temperature  
Mean Temperature 55 °F -  
Max Temperature 64 °F 71 °F 85 °F (1955)
Min Temperature 46 °F 51 °F 36 °F (1982)
Degree Days  
Heating Degree Days 10    
Growing Degree Days 5 (Base 50)    
Moisture  
Dew Point 47 °F    
Average Humidity 69    
Maximum Humidity 100    
Minimum Humidity 55    
Precipitation  
Precipitation 0.00 in - - ()
Sea Level Pressure  
Sea Level Pressure 30.30 in    
Wind  
Wind Speed 7 mph (NE)    
Max Wind Speed 13 mph    
Max Gust Speed 21 mph    
Visibility 10 miles    
Events      
Averages and records for this station are not official NWS values.
T = Trace of Precipitation, MM = Missing Value Source: NWS Daily Summary

Daily Weather History Graph

Daily Weather History Graph

Search for Another Location

Airport or City:

Astronomy

Sep. 19, 2019 Rise Set
Actual Time 6:26 AM EDT 6:45 PM EDT
Civil Twilight 5:58 AM EDT 7:13 PM EDT
Nautical Twilight 5:25 AM EDT 7:46 PM EDT
Astronomical Twilight 4:52 AM EDT 8:20 PM EDT
Moon 9:47 PM EDT (9/19) 11:31 AM EDT (9/19)
Length of Visible Light 13h 14m
Length of Day
12h 19m
Waning Gibbous, 74% of the Moon is Illuminated
Sep 19
Waning Gibbous
Sep 21
Last Quarter
Sep 28
New
Oct 5
First Quarter
Oct 13
Full

Hourly Weather History & Observations

Time (EDT) Temp. Windchill Dew Point Humidity Pressure Visibility Wind Dir Wind Speed Gust Speed Precip Events Conditions
12:15 AM 57.2 °F - 44.6 °F 63% 30.33 in 10.0 mi NE 12.7 mph - N/A   Partly Cloudy
12:35 AM 57.2 °F - 44.6 °F 63% 30.32 in 10.0 mi ENE 10.4 mph 20.7 mph N/A   Clear
12:55 AM 57.2 °F - 44.6 °F 63% 30.32 in 10.0 mi NE 12.7 mph 18.4 mph N/A   Clear
1:15 AM 57.2 °F - 42.8 °F 59% 30.32 in 10.0 mi NE 10.4 mph 17.3 mph N/A   Clear
1:35 AM 57.2 °F - 44.6 °F 63% 30.31 in 10.0 mi NE 8.1 mph 15.0 mph N/A   Clear
1:55 AM 57.2 °F - 44.6 °F 63% 30.30 in 10.0 mi NE 9.2 mph 15.0 mph N/A   Clear
2:15 AM 57.2 °F - 42.8 °F 59% 30.31 in 10.0 mi NE 9.2 mph 17.3 mph N/A   Clear
2:35 AM 57.2 °F - 42.8 °F 59% 30.30 in 10.0 mi ENE 8.1 mph - N/A   Clear
2:55 AM 57.2 °F - 44.6 °F 63% 30.30 in 10.0 mi NE 6.9 mph - N/A   Clear
3:15 AM 57.2 °F - 44.6 °F 63% 30.30 in 10.0 mi NE 8.1 mph - N/A   Clear
3:35 AM 57.2 °F - 44.6 °F 63% 30.30 in 10.0 mi NE 8.1 mph - N/A   Clear
3:55 AM 57.2 °F - 42.8 °F 59% 30.30 in 10.0 mi NE 8.1 mph 15.0 mph N/A   Clear
4:15 AM 57.2 °F - 42.8 °F 59% 30.30 in 10.0 mi NE 6.9 mph - N/A   Clear
4:35 AM 57.2 °F - 42.8 °F 59% 30.30 in 10.0 mi Variable 5.8 mph 11.5 mph N/A   Clear
4:55 AM 57.2 °F - 42.8 °F 59% 30.30 in 10.0 mi NE 6.9 mph - N/A   Clear
5:15 AM 57.2 °F - 42.8 °F 59% 30.30 in 10.0 mi NE 9.2 mph - N/A   Clear
5:35 AM 57.2 °F - 44.6 °F 63% 30.30 in 10.0 mi Variable 6.9 mph - N/A   Clear
5:55 AM 57.2 °F - 42.8 °F 59% 30.30 in 10.0 mi NE 6.9 mph - N/A   Clear
6:15 AM 57.2 °F - 42.8 °F 59% 30.31 in 10.0 mi Variable 5.8 mph - N/A   Clear
6:35 AM 57.2 °F - 42.8 °F 59% 30.31 in 10.0 mi Variable 5.8 mph - N/A   Clear
6:55 AM 57.2 °F - 50.0 °F 77% 30.32 in 10.0 mi Variable 6.9 mph - N/A   Clear
7:15 AM 57.2 °F - 50.0 °F 77% 30.32 in 10.0 mi Variable 5.8 mph 12.7 mph N/A   Clear
7:35 AM 57.2 °F - 50.0 °F 77% 30.33 in 10.0 mi Variable 5.8 mph 11.5 mph N/A   Clear
7:55 AM 59.0 °F - 50.0 °F 72% 30.33 in 10.0 mi Calm Calm 12.7 mph N/A   Clear
8:15 AM 59.0 °F - 50.0 °F 72% 30.33 in 10.0 mi North 8.1 mph - N/A   Clear
8:35 AM 60.8 °F - 50.0 °F 68% 30.34 in 10.0 mi Variable 4.6 mph 12.7 mph N/A   Clear
8:55 AM 60.8 °F - 48.2 °F 63% 30.35 in 10.0 mi Variable 5.8 mph - N/A   Clear
9:15 AM 60.8 °F - 50.0 °F 68% 30.34 in 10.0 mi North 9.2 mph - N/A   Clear
9:35 AM 60.8 °F - 50.0 °F 68% 30.35 in 10.0 mi Variable 5.8 mph 12.7 mph N/A   Partly Cloudy
9:50 AM 60.8 °F - 50.0 °F 68% 30.35 in 10.0 mi NNE 8.1 mph - N/A   Partly Cloudy
10:15 AM 60.8 °F - 50.0 °F 68% 30.35 in 10.0 mi Variable 6.9 mph 13.8 mph N/A   Partly Cloudy
10:35 AM 62.6 °F - 50.0 °F 63% 30.34 in 10.0 mi Variable 6.9 mph 15.0 mph N/A   Partly Cloudy
10:55 AM 62.6 °F - 50.0 °F 63% 30.34 in 10.0 mi Variable 5.8 mph 13.8 mph N/A   Partly Cloudy
11:35 AM 62.6 °F - 50.0 °F 63% 30.34 in 10.0 mi North 8.1 mph 13.8 mph N/A   Scattered Clouds
11:55 AM 62.6 °F - 48.2 °F 59% 30.34 in 10.0 mi NE 8.1 mph - N/A   Partly Cloudy
12:15 PM 62.6 °F - 48.2 °F 59% 30.34 in 10.0 mi Variable 5.8 mph 12.7 mph N/A   Clear
12:35 PM 64.4 °F - 48.2 °F 56% 30.34 in 10.0 mi Variable 4.6 mph 11.5 mph N/A   Partly Cloudy
12:55 PM 62.6 °F - 46.4 °F 55% 30.33 in 10.0 mi Variable 5.8 mph 15.0 mph N/A   Clear
1:15 PM 64.4 °F - 48.2 °F 56% 30.33 in 10.0 mi Variable 5.8 mph 12.7 mph N/A   Clear
1:35 PM 62.6 °F - 46.4 °F 55% 30.33 in 10.0 mi Variable 6.9 mph - N/A   Clear
1:55 PM 62.6 °F - 48.2 °F 59% 30.32 in 10.0 mi Variable 4.6 mph 13.8 mph N/A   Clear
2:15 PM 62.6 °F - 48.2 °F 59% 30.32 in 10.0 mi Variable 5.8 mph 13.8 mph N/A   Clear
2:35 PM 62.6 °F - 48.2 °F 59% 30.31 in 10.0 mi NE 5.8 mph 11.5 mph N/A   Clear
2:55 PM 64.4 °F - 48.2 °F 56% 30.31 in 10.0 mi Variable 5.8 mph - N/A   Clear
3:15 PM 62.6 °F - 48.2 °F 59% 30.30 in 10.0 mi ENE 8.1 mph - N/A   Clear
3:35 PM 62.6 °F - 46.4 °F 55% 30.29 in 10.0 mi Variable 3.5 mph - N/A   Clear
3:55 PM 62.6 °F - 46.4 °F 55% 30.29 in 10.0 mi Variable 5.8 mph 11.5 mph N/A   Clear
4:15 PM 62.6 °F - 46.4 °F 55% 30.29 in 10.0 mi ENE 4.6 mph - N/A   Clear
4:35 PM 62.6 °F - 46.4 °F 55% 30.29 in 10.0 mi Variable 4.6 mph - N/A   Clear
4:55 PM 62.6 °F - 46.4 °F 55% 30.29 in 10.0 mi Calm Calm - N/A   Clear
5:15 PM 62.6 °F - 46.4 °F 55% 30.28 in 10.0 mi Calm Calm - N/A   Clear
5:35 PM 62.6 °F - 46.4 °F 55% 30.28 in 10.0 mi NE 3.5 mph - N/A   Clear
5:55 PM 62.6 °F - 46.4 °F 55% 30.28 in 10.0 mi Calm Calm - N/A   Clear
6:15 PM 60.8 °F - 46.4 °F 59% 30.29 in 10.0 mi Calm Calm - N/A   Clear
6:30 PM 57.2 °F - 48.2 °F 72% 30.28 in 10.0 mi Calm Calm - N/A   Clear
6:55 PM 55.4 °F - 50.0 °F 82% 30.28 in 10.0 mi Calm Calm - N/A   Clear
7:15 PM 53.6 °F - 48.2 °F 82% 30.28 in 10.0 mi Calm Calm - N/A   Clear
7:35 PM 51.8 °F - 48.2 °F 88% 30.28 in 10.0 mi Calm Calm - N/A   Clear
7:55 PM 51.8 °F - 48.2 °F 88% 30.28 in 10.0 mi Calm Calm - N/A   Clear
8:15 PM 50.0 °F - 48.2 °F 94% 30.28 in 10.0 mi Calm Calm - N/A   Clear
8:35 PM 50.0 °F - 48.2 °F 94% 30.27 in 10.0 mi Calm Calm - N/A   Clear
8:55 PM 48.2 °F - 46.4 °F 93% 30.26 in 10.0 mi Calm Calm - N/A   Clear
9:15 PM 48.2 °F - 46.4 °F 93% 30.26 in 10.0 mi Calm Calm - N/A   Clear
9:35 PM 48.2 °F - 46.4 °F 93% 30.26 in 10.0 mi Calm Calm - N/A   Clear
9:55 PM 48.2 °F - 46.4 °F 93% 30.26 in 10.0 mi Calm Calm - N/A   Clear
10:15 PM 46.4 °F - 46.4 °F 100% 30.26 in 10.0 mi Calm Calm - N/A   Clear
10:35 PM 46.4 °F 44.3 °F 46.4 °F 100% 30.25 in 10.0 mi West 4.6 mph - N/A   Clear
10:55 PM 48.2 °F - 46.4 °F 93% 30.25 in 10.0 mi West 3.5 mph - N/A   Clear
11:15 PM 46.4 °F - 46.4 °F 100% 30.25 in 10.0 mi Calm Calm - N/A   Clear
11:35 PM 46.4 °F - 44.6 °F 93% 30.24 in 10.0 mi Calm Calm - N/A   Clear
11:55 PM 46.4 °F 44.3 °F 46.4 °F 100% 30.24 in 10.0 mi WSW 4.6 mph - N/A   Clear